User: anonymous
Location: Brno
(49.2000°N, 16.6330°E)
Time: 08:24:22
(UTC+02:00)
Language:

Cosmos 332 Rocket - Orbit

View from above orbital plane
View from above orbital plane
View from above satellite
View from above satellite

Ground track
Ground track

The orbit data is extracted from the following two-line orbital elements,

1 04370U 70028B   14294.09673574  .00000802  00000-0  17597-3 0  7767
2 04370 074.0385 138.8684 0016701 302.0863 192.3556 14.59220376870441
Epoch (UTC): 21 October 2014 02:19:17
Eccentricity: 0.0016701
inclination: 74.0385°
perigee height: 684 km
apogee height: 707 km
right ascension of ascending node: 138.8684°
argument of perigee: 302.0863°
revolutions per day: 14.59220376
mean anomaly at epoch: 192.3556°
orbit number at epoch: 87044

The dashed part of the orbit path shows where the satellite is in the earth's shadow,  

DLR